This demonstration page uses our WeatherBlox Daily Observations layout. Learn more.

Left ArrowRight Arrow

Hourly Observations for March 13, 2016

Temp ( °F °C ) Dew Point ( °F °C ) Humidity (%) Winds ( mph kmh ) Pressure ( in mb ) Visibility ( mi km ) Precip ( " mm )
12:53 am 00:53 Cloudy with Light Rain 56 13.3 53 11.7 90 90 ENE 8 13 29.96 1015 8 13 0.02 0.51
1:53 am 01:53 Cloudy with Light Rain 55 12.8 53 11.7 93 93 ENE 5 7 29.95 1014 6 10 0.01 0.25
3:43 am 03:43 Cloudy with Light Rain 55 12.8 54 12.2 96 96 ENE 5 7 29.94 1014 4 6 0.04 1.02
3:53 am 03:53 Cloudy with Rain 55 12.8 54 12.2 96 96 N N/A 29.93 1014 3 5 0.07 1.78
4:09 am 04:09 Cloudy with Heavy Rain 55 12.8 54 12.2 96 96 VRB 6 9 29.94 1014 3 4 0.10 2.54
4:20 am 04:20 Cloudy with Light Rain 55 12.8 54 12.2 96 96 NE 5 7 29.91 1013 3 5 0.13 3.30
4:28 am 04:28 Cloudy with Rain 55 12.8 54 12.2 96 96 N N/A 29.91 1013 3 4 0.15 3.81
4:42 am 04:42 Cloudy with Rain 55 12.8 54 12.2 96 96 WSW 3 6 29.91 1013 3 5 0.18 4.57
4:45 am 04:45 Cloudy with Rain 55 12.8 54 12.2 96 96 N N/A 29.91 1013 3 4 0.19 4.83
4:53 am 04:53 Cloudy with Rain 55 12.8 54 12.2 96 96 N N/A 29.91 1013 2 3 0.22 5.59
5:02 am 05:02 Cloudy with Heavy Rain 56 13.3 55 12.8 97 97 NE 5 7 29.91 1013 2 3 0.08 2.03
5:07 am 05:07 Cloudy with Heavy Rain 56 13.3 55 12.8 97 97 NE 7 11 29.91 1013 2 3 0.09 2.29
5:17 am 05:17 Cloudy with Light Rain 56 13.3 55 12.8 97 97 ENE 9 15 29.91 1013 4 6 0.10 2.54
5:51 am 05:51 Cloudy with Light Rain 57 14 55 13 94 94 N N/A 29.91 1013 5 8 0.11 2.79
5:53 am 05:53 Cloudy with Light Rain 57 13.9 56 13.3 96 96 N N/A 29.90 1012 5 8 0.12 3.05
6:46 am 06:46 Cloudy with Light Rain 58 14.4 57 13.9 97 97 N N/A 29.88 1012 6 10 0.02 0.51
6:53 am 06:53 Cloudy with Light Rain 58 14.4 57 13.9 97 97 N N/A 29.86 1011 6 10 0.02 0.51
7:02 am 07:02 Cloudy with Light Rain 58 14.4 57 13.9 97 97 N N/A 29.88 1012 5 8 N/A
7:24 am 07:24 Cloudy with Mist and Fog 57 13.9 57 13.9 100 100 N N/A 29.88 1012 4 6 N/A
7:39 am 07:39 Cloudy with Mist and Fog 56 13.3 55 12.8 97 97 E 3 6 29.88 1012 2 3 N/A
7:46 am 07:46 Cloudy with Mist and Fog 57 13.9 56 13.3 96 96 N N/A 29.88 1012 2 2 N/A
7:48 am 07:48 Cloudy with Mist and Fog 57 14 55 13 94 94 N N/A 29.88 1012 2 3 N/A
7:53 am 07:53 Cloudy with Mist and Fog 57 13.9 56 13.3 96 96 N N/A 29.86 1011 5 8 N/A
8:07 am 08:07 Cloudy with Mist and Fog 57 13.9 56 13.3 96 96 N N/A 29.88 1012 5 8 N/A
8:30 am 08:30 Cloudy with Mist and Fog 57 13.9 57 13.9 100 100 N N/A 29.88 1012 2 3 N/A
8:33 am 08:33 Cloudy with Mist and Fog 57 13.9 57 13.9 100 100 N N/A 29.88 1012 2 2 N/A
8:41 am 08:41 Cloudy with Mist and Fog 58 14.4 57 13.9 97 97 N N/A 29.85 1011 2 3 N/A
8:53 am 08:53 Cloudy with Light Rain 58 14.4 57 13.9 97 97 N N/A 29.86 1011 3 5 N/A
9:53 am 09:53 Cloudy with Mist and Fog 60 15.6 58 14.4 93 93 E 5 7 29.85 1011 5 8 N/A
10:04 am 10:04 Cloudy 60 15.6 59 15 96 96 E 6 9 29.85 1011 7 11 N/A
10:14 am 10:14 Cloudy 60 15.6 59 15 96 96 E 6 9 29.85 1011 8 13 N/A
10:33 am 10:33 Cloudy 61 16.1 59 15 93 93 E 6 9 29.85 1011 8 13 N/A
10:46 am 10:46 Cloudy 61 16.1 59 15 93 93 E 6 9 29.85 1011 8 13 N/A
10:53 am 10:53 Cloudy 61 16.1 59 15 93 93 ESE 6 9 29.84 1010 8 13 N/A
11:27 am 11:27 Cloudy 61 16.1 59 15 93 93 E 6 9 29.83 1010 8 13 0.01 0.25
11:53 am 11:53 Cloudy 61 16.1 59 15 93 93 E 6 9 29.82 1010 9 14 0.01 0.25
12:07 pm 12:07 Cloudy 61 16.1 59 15 93 93 ESE 6 9 29.83 1010 10 16 N/A
12:53 pm 12:53 Cloudy with Light Rain 62 16.7 60 15.6 93 93 ESE 5 7 29.80 1009 6 10 N/A
1:19 pm 13:19 Cloudy with Light Rain 62 16.7 60 15.6 93 93 N N/A 29.80 1009 5 8 0.02 0.51
1:33 pm 13:33 Cloudy with Light Rain 62 16.7 60 15.6 93 93 ESE 3 6 29.80 1009 3 4 0.04 1.02
1:37 pm 13:37 Cloudy with Rain 62 16.7 60 15.6 93 93 N N/A 29.80 1009 2 2 0.06 1.52
1:53 pm 13:53 Cloudy with Rain 62 16.7 60 15.6 93 93 ESE 3 6 29.79 1009 2 3 0.10 2.54
2:14 pm 14:14 Cloudy with Light Rain 61 16.1 60 15.6 97 97 N N/A 29.80 1009 3 4 0.04 1.02
2:21 pm 14:21 Cloudy with Light Rain 61 16.1 60 15.6 97 97 N N/A 29.77 1008 2 3 0.04 1.02
2:31 pm 14:31 Cloudy with Light Rain 61 16.1 60 15.6 97 97 N N/A 29.77 1008 2 3 0.05 1.27
2:45 pm 14:45 Cloudy with Light Rain 62 16.7 61 16.1 96 96 E 3 6 29.77 1008 4 6 0.06 1.52
2:53 pm 14:53 Cloudy with Light Rain 62 16.7 61 16.1 96 96 N N/A 29.76 1008 5 8 0.06 1.52
3:22 pm 15:22 Cloudy with Light Rain 61 16.1 60 15.6 97 97 N N/A 29.77 1008 2 3 0.01 0.25
3:37 pm 15:37 Cloudy with Light Rain 62 16.7 60 15.6 93 93 ESE 3 6 29.77 1008 3 5 0.02 0.51
3:53 pm 15:53 Cloudy with Light Rain 62 16.7 60 15.6 93 93 VRB 3 6 29.75 1008 4 6 0.02 0.51
4:08 pm 16:08 Cloudy with Light Rain 62 16.7 61 16.1 96 96 ESE 3 6 29.74 1007 3 4 0.01 0.25
4:26 pm 16:26 Cloudy with Light Rain 62 16.7 61 16.1 96 96 N N/A 29.74 1007 3 4 0.01 0.25
4:35 pm 16:35 Cloudy with Light Rain 62 16.7 60 15.6 93 93 N N/A 29.74 1007 3 5 0.01 0.25
4:53 pm 16:53 Cloudy 62 16.7 60 15.6 93 93 SE 3 6 29.75 1007 7 11 0.01 0.25
5:53 pm 17:53 Cloudy 62 16.7 60 15.6 93 93 SSE 3 6 29.74 1007 10 16 N/A
6:14 pm 18:14 Cloudy 62 16.7 60 15.6 93 93 N N/A 29.74 1007 10 16 N/A
6:53 pm 18:53 Mostly Cloudy 63 17.2 60 15.6 90 90 N N/A 29.73 1007 10 16 N/A
7:11 pm 19:11 Mostly Cloudy 63 17.2 60 15.6 90 90 N N/A 29.74 1007 10 16 N/A
7:30 pm 19:30 Mostly Cloudy 62 16.7 60 15.6 93 93 N N/A 29.74 1007 10 16 N/A
7:53 pm 19:53 Partly Cloudy 60 15.6 59 15 96 96 N N/A 29.74 1007 9 14 N/A
8:43 pm 20:43 Mostly Clear with Mist and Fog 59 15 58 14.4 96 96 N N/A 29.74 1007 2 3 N/A
8:50 pm 20:50 Mostly Clear with Mist and Fog 57 14 57 14 100 100 N N/A 29.74 1007 2 2 N/A
8:53 pm 20:53 Partly Cloudy with Mist and Fog 58 14.4 57 13.9 97 97 N N/A 29.74 1007 2 2 N/A
9:14 pm 21:14 Partly Cloudy with Fog 56 13.3 55 12.8 97 97 N N/A 29.74 1007 1 1 N/A
9:45 pm 21:45 Cloudy with Mist and Fog 59 15 58 14.4 96 96 ESE 3 6 29.74 1007 2 3 N/A
9:53 pm 21:53 Cloudy with Mist and Fog 58 14.4 58 14.4 100 100 E 3 6 29.74 1007 3 4 N/A
10:25 pm 22:25 Clear with Mist and Fog 58 14.4 58 14.4 100 100 ESE 5 7 29.74 1007 2 3 N/A
10:32 pm 22:32 Clear with Mist and Fog 58 14.4 58 14.4 100 100 ESE 5 7 29.74 1007 2 3 N/A
10:53 pm 22:53 Clear with Mist and Fog 58 14.4 58 14.4 100 100 ESE 5 7 29.73 1007 4 6 N/A
11:46 pm 23:46 Clear with Mist and Fog 57 13.9 56 13.3 96 96 N N/A 29.74 1007 2 3 N/A
11:53 pm 23:53 Clear with Mist and Fog 57 13.9 57 13.9 100 100 SE 3 6 29.75 1007 2 3 N/A

Powered by AerisWeather